Regional Weather Roundup
Issued by NWS

Home | Current Version | Previous Version | Graphics & Text | Print | Product List | Glossary On
Versions: 1 2 3 4 5 6 7 8 9 10 11 12 13 14 15 16 17 18 19 20 21 22 23 24 25 26 27 28 29 30 31 32 33 34 35 36 37 38 39 40 41 42 43 44 45 46 47 48 49 50
000
ASUS43 KIND 310109
RWRIN

WEATHER ROUNDUP FOR INDIANA
NATIONAL WEATHER SERVICE INDIANAPOLIS IN
900 PM EDT TUE AUG 30 2016

NOTE: "FAIR" INDICATES FEW OR NO CLOUDS BELOW 12,000 FEET WITH NO
SIGNIFICANT WEATHER AND/OR OBSTRUCTIONS TO VISIBILITY.

* - STATION DOES NOT REPORT WEATHER SUCH AS PRECIPITATION OR FOG.

+ - STATION NOT QUALITY CONTROLLED BY THE NATIONAL WEATHER SERVICE.
    USE DATA WITH CAUTION...ESPECIALLY DEWPOINT AND RELATIVE
    HUMIDITY OBSERVATIONS.

INZ001>003-010>013-019-020-310200-
NORTHWEST INDIANA

CITY           SKY/WX    TMP DP  RH WIND       PRES   REMARKS
GARY /AIRPORT/ MOCLDY    75  72  88 CALM      30.04S
KNOX *+        PTCLDY    72  55  56 SE3       30.03F
LA PORTE +     PTCLDY   N/A N/A N/A CALM      30.05R
MICHIGAN CITY+ PTCLDY    72  72 100 MISG      30.05R FOG
MONTICELLO +   PTCLDY    75  67  75 S5        30.04S
RENSSELAER +   CLEAR     72  72 100 CALM      30.05S
VALPARAISO     PTCLDY    77  70  79 W3        30.04F

$$

LMZ046-743>745-310200-
SOUTHERN LAKE MICHIGAN

STATION/POSITION TIME  TEMP    WIND        PRES    WAVE
                       AIR SEA DIR/SP/G            HT
                 (UTC) (F)     (DEG/KT/KT) (MB)    (FT)
BURNS HARBOR     0000   75     350/  6/ 13 1017.3
MICHIGAN CITY    0000   76      10/  3/  3   N/A
5NW MICH CITY    0100   75 75   10/  4/  6   N/A     1

$$

INZ004-005-014>016-021>024-310200-
NORTH CENTRAL INDIANA

CITY           SKY/WX    TMP DP  RH WIND       PRES   REMARKS
ELKHART        CLEAR    N/A N/A N/A SE6       30.05S
GOSHEN         CLOUDY    74  68  81 SE7       30.06S
LOGANSPORT +   MOCLDY    70  68  94 CALM      30.07R
PERU/GRISSOM   MOCLDY    73  70  91 SE5       30.06R
ROCHESTER +    PTCLDY    73  73 100 S6        30.06S
SOUTH BEND     PTCLDY    74  71  91 E3        30.05S
WARSAW +       PTCLDY    72  70  94 CALM      30.06S

$$

INZ006>009-017-018-025>027-310200-
NORTHEAST INDIANA

CITY           SKY/WX    TMP DP  RH WIND       PRES   REMARKS
ANGOLA *+      PTCLDY    70  63  78 CALM      30.07F
AUBURN +       CLOUDY    72  68  88 CALM      30.08S
FORT WAYNE     CLOUDY    71  69  93 E3        30.08F
HUNTINGTON +   CLOUDY    70  69  95 CALM      30.08R

$$

INZ028-029-035-036-043>045-051>053-310200-
WEST CENTRAL INDIANA

CITY           SKY/WX    TMP DP  RH WIND       PRES   REMARKS
CRAWFORDSVL +  PTCLDY    71  71 100 CALM      30.07R
GREENCASTLE +  HVY RAIN  73  72  94 SW3       30.09R
LAFAYETTE      CLOUDY    74  70  87 CALM      30.05R
TERRE HAUTE    LGT RAIN  73  70  90 NE7       30.06S

$$

INZ030>032-037>040-046>048-054>057-064-065-310200-
CENTRAL INDIANA

CITY           SKY/WX    TMP DP  RH WIND       PRES   REMARKS
COLUMBUS       CLEAR     81  72  74 CALM      30.03R
INDIANAPOLIS   CLOUDY    76  71  85 N12       30.06R
-EAGLE CREEK   CLOUDY    76  71  85 N9        30.07R
KOKOMO *+      CLOUDY    72  70  94 S3        30.07R
MARION +       LGT RAIN  70  69  98 SE6       30.09S
MT COMFORT *+  CLOUDY    72  70  94 NW9       30.09R
SHELBYVILLE    PTCLDY    78  71  79 NE6       30.04R
ZIONSVILLE +   CLOUDY    71  69  95 SE3       30.10R

$$

INZ033-034-041-042-049-050-058-059-310200-
EAST CENTRAL INDIANA

CITY           SKY/WX    TMP DP  RH WIND       PRES   REMARKS
MUNCIE         TSTM      71  69  93 N5        30.12R FOG

$$

INZ060-061-067>069-081>083-085>088-310200-
SOUTHWEST INDIANA

CITY           SKY/WX    TMP DP  RH WIND       PRES   REMARKS
EVANSVILLE     CLEAR     83  72  69 CALM      30.01S
HUNTINGBURG *+ CLEAR     81  72  74 CALM      30.02S
WASHINGTON +   CLEAR     76  76 100 MISG      30.02R

$$

INZ062-063-066-070>080-084-089>092-310200-
SOUTH CENTRAL AND SOUTHEAST INDIANA

CITY           SKY/WX    TMP DP  RH WIND       PRES   REMARKS
BLOOMINGTON    CLOUDY    76  73  91 CALM      30.04R
MADISON *+     CLEAR     73  72  94 CALM      30.05R

$$




USA.gov is the U.S. government's official web portal to all federal, state and local government web resources and services.